Location: *
(33.6842°N, 117.7925°W)
Time: 04:39:41
(UTC+00:00)

Cosmos 2366 rocket - Pass Details

Date: 21 October 2019
Orbit: 955 x 998 km, 82.9° (Epoch: 13 November)

Event Time Altitude Azimuth Distance (km) Brightness Sun altitude
Rises 13:04:30 0° 181° (S) 3,693 7.1 -12.4°
Reaches altitude 10° 13:07:01 10° 180° (S) 2,751 6.4 -11.9°
Maximum altitude 13:13:20 81° 95° (E) 1,013 4.2 -10.6°
Drops below altitude 10° 13:19:42 10° 8° (N) 2,768 6.4 -9.2°
Sets 13:22:14 0° 8° (N) 3,719 7.1 -8.7°
